Miscellaneous Local Product
Issued by NWS Hastings, NE

Home | Current Version | Previous Version | Graphics & Text | Print | Product List | Glossary On
Versions: 1 2 3 4 5 6 7 8 9 10 11 12 13 14 15 16 17 18 19 20 21 22 23 24 25 26 27 28 29 30 31 32 33 34 35 36 37 38 39 40 41 42 43 44 45 46 47 48 49 50
000
AXUS43 KGID 290902
MISGRI

GID CWA HOURLY WEATHER ROUNDUP
NATIONAL WEATHER SERVICE HASTINGS NE
400 AM CDT SAT APR 29 2017

NOTE: "FAIR" INDICATES FEW OR NO CLOUDS BELOW 12,000 FEET WITH NO
SIGNIFICANT WEATHER AND/OR OBSTRUCTIONS TO VISIBILITY.

...SOUTH CENTRAL NEBRASKA...

CITY           SKY/WX    TMP DP  RH WIND       PRES   REMARKS
GRAND ISLAND   CLOUDY    40  37  89 N14       30.03S WCI  32
HASTINGS       CLOUDY    40  35  83 N20       29.99F WCI  30
KEARNEY        CLOUDY    39  34  81 N14       30.04S WCI  31
ORD            CLOUDY    40  31  70 N12       30.07S WCI  33
YORK           CLOUDY    41  37  87 N17       30.02R
AURORA         CLOUDY    40  37  86 N16       30.01S WCI  32
LEXINGTON      CLOUDY    39  33  78 N12G17    30.05F WCI  32
HOLDREGE       CLOUDY    38  35  87 N13       30.05R WCI  30
HEBRON         CLOUDY    41  37  84 NE20G25   29.96S

...NEBRASKA PANHANDLE...

CITY           SKY/WX    TMP DP  RH WIND       PRES   REMARKS
CHADRON        CLOUDY    33  29  85 CALM      30.19S
ALLIANCE       CLOUDY    33  29  85 N8        30.12F WCI  26
SCOTTSBLUFF    CLOUDY    33  28  81 N9        30.13F WCI  25
SIDNEY         CLOUDY    33  30  88 N10       30.10F WCI  25

...WESTERN AND NORTH CENTRAL NEBRASKA...

CITY           SKY/WX    TMP DP  RH WIND       PRES   REMARKS
VALENTINE      CLOUDY    41  21  44 NE6       30.17R
AINSWORTH      CLOUDY    38  28  66 N8        30.15S WCI  32
ONEILL         CLOUDY    38  27  64 N9        30.13R WCI  32
BROKEN BOW     CLOUDY    40  32  73 N10       30.07S WCI  33
IMPERIAL       CLOUDY    37  32  82 N15       30.04F WCI  28
NORTH PLATTE   CLOUDY    39  31  72 NE13      30.07F WCI  31
MCCOOK         CLOUDY    38  33  82 NE17      30.01F WCI  28

...EASTERN NEBRASKA...

CITY           SKY/WX    TMP DP  RH WIND       PRES   REMARKS
NORFOLK        CLOUDY    41  31  67 N10       30.07S
SO SIOUX CITY  CLOUDY    41  33  73 N9        30.09R
TEKAMAH        CLOUDY    42  37  82 N12       30.07R
COLUMBUS       CLOUDY    41  34  75 N12G18    30.07R
ALBION         CLOUDY    42  32  68 N10       30.07R
OMAHA EPPLEY   CLOUDY    44  34  67 NE17G23   30.03R
OFFUTT AFB     CLOUDY    43  36  76 NE9G21    30.01R
MILLARD        CLOUDY    46  37  70 N7        30.03R
LINCOLN        CLOUDY    43  37  79 NE16      30.04R
NEBRASKA CITY  CLOUDY    42  38  83 NE17      30.01R
BEATRICE       CLOUDY    43  38  84 NE20      29.97S
FALLS CITY     CLOUDY    43  40  89 NE13G23   29.95S

...NORTHERN KANSAS...

CITY           SKY/WX    TMP DP  RH WIND       PRES   REMARKS
GOODLAND       LGT SNOW  32  32 100 NE21G29   29.97F FOG     WCI  20
HILL CITY      LGT RAIN  38  37  97 NE20G31   29.97F WCI  28
NORTON         CLOUDY    37  34  87 N17G24    29.97F WCI  28
PHILLIPSBURG   CLOUDY    39  39 100 N15G23    29.99F WCI  31
SMITH CENTER   CLOUDY    37  36  93 N18G26    29.98R WCI  27
HAYS           LGT RAIN  39  37  92 N23G32    29.95R WCI  28
RUSSELL        LGT RAIN  39  38  96 N18G29    29.94R WCI  30
CONCORDIA      CLOUDY    41  39  93 NE20G28   29.95R
SALINA         RAIN      44  41  89 N17G25    29.92R
TOPEKA         CLOUDY    46  45  96 N10       29.90F



USA.gov is the U.S. government's official web portal to all federal, state and local government web resources and services.